EW4120 Weather Reports


time (UTC)temp
F
wind
direction
speed
knots
gust
knots
rain 1hr
in
rain 24hr
in
rain mn
in
humidity
%
barometer
mb
20260905215516 79 0.0 0.9 0.00 0.05 0.05 85 1012.6
20260905214522 79 0.0 0.0 0.00 0.05 0.05 89 1012.7
20260905213516 78 0.0 0.0 0.00 0.05 0.05 91 1012.7
20260905212657 78 0.0 0.9 0.00 0.05 0.05 90 1012.7
20260905211536 79 0.0 0.0 0.00 0.05 0.05 90 1012.9
20260905210516 79 0.0 0.0 0.00 0.05 0.05 92 1013.0
20260905205516 78 0.0 0.9 0.00 0.05 0.05 94 1013.1
20260905204617 76 0.0 1.7 0.00 0.05 0.05 97 1012.8
20260905203537 75 0.0 0.9 0.01 0.05 0.05 97 1012.4
20260905202516 75 0.0 0.9 0.01 0.05 0.05 98 1012.0
20260905201517 74 0.0 0.0 0.01 0.05 0.05 97 1012.1
20260905200516 74 0.0 0.0 0.01 0.05 0.05 97 1012.3
20260905195516 74 0.0 1.7 0.01 0.05 0.05 97 1012.8
20260905194536 74 0.0 0.0 0.01 0.05 0.05 97 1012.8
20260905193536 73 0.0 0.9 0.00 0.05 0.04 96 1012.9
20260905192536 74 0.0 1.7 0.00 0.05 0.04 96 1012.7
20260905191516 73 0.0 0.0 0.00 0.05 0.04 95 1012.7
20260905190516 73 0.0 0.9 0.00 0.05 0.04 94 1012.5
20260905185536 74 0.0 0.9 0.00 0.05 0.04 92 1012.5
20260905184516 76 0.0 2.6 0.00 0.05 0.04 85 1012.3
20260905183516 83 45 5.2 12.2 0.00 0.05 0.04 71 1013.4
20260905182517 91 45 0.9 5.2 0.00 0.05 0.04 63 1012.7
20260905181516 92 0 0.9 3.5 0.00 0.05 0.04 63 1013.0
20260905180516 93 68 0.9 4.3 0.01 0.05 0.04 61 1013.2
20260905175616 93 45 1.7 5.2 0.01 0.05 0.04 61 1013.4
20260905174536 94 45 1.7 4.3 0.01 0.05 0.04 63 1013.3
20260905173516 93 23 2.6 7.8 0.01 0.05 0.04 62 1013.4
20260905172516 93 23 0.9 3.5 0.01 0.05 0.04 63 1013.9
20260905171556 93 45 0.9 2.6 0.01 0.05 0.04 64 1014.2
20260905170616 93 45 0.9 3.5 0.00 0.04 0.03 64 1014.4
20260905165536 92 45 0.9 4.3 0.00 0.04 0.03 67 1014.5
20260905164516 91 23 0.9 3.5 0.00 0.04 0.03 67 1014.6
20260905163516 91 23 0.9 7.0 0.00 0.04 0.03 69 1014.6
20260905162536 89 45 0.9 4.3 0.00 0.04 0.03 75 1014.6
20260905161516 89 45 0.9 3.5 0.00 0.04 0.03 73 1014.7
20260905160536 88 0.0 3.5 0.01 0.04 0.03 77 1014.8
20260905155616 87 248 0.9 3.5 0.01 0.04 0.03 77 1014.9
20260905154516 87 0.0 1.7 0.01 0.04 0.03 78 1014.9
20260905153536 86 23 0.9 2.6 0.01 0.04 0.03 78 1015.0
20260905152636 85 0.0 2.6 0.01 0.04 0.03 83 1014.9
20260905151516 84 0.0 0.9 0.01 0.04 0.03 86 1015.0
20260905150636 84 0.0 1.7 0.00 0.03 0.02 85 1015.1
20260905145536 83 0.0 1.7 0.00 0.03 0.02 87 1015.2
20260905144656 82 0.0 2.6 0.00 0.03 0.02 90 1015.2
20260905143516 81 0.0 0.9 0.00 0.03 0.02 93 1015.1
20260905142516 79 0.0 1.7 0.00 0.03 0.02 97 1015.0
20260905141556 78 0.0 2.6 0.00 0.03 0.02 97 1014.9
20260905140516 77 0.0 1.7 0.00 0.03 0.02 99 1014.9
20260905135516 76 0.0 1.7 0.00 0.03 0.02 100 1014.9
20260905134516 77 0.0 1.7 0.00 0.03 0.02 100 1014.9
20260905133556 76 0.0 0.9 0.00 0.03 0.02 100 1014.8
20260905132556 75 0.0 0.0 0.00 0.03 0.02 100 1014.7
20260905131556 75 0.0 0.0 0.00 0.03 0.02 100 1014.9
20260905130516 74 0.0 0.0 0.01 0.03 0.02 100 1015.0
20260905125516 74 0.0 0.0 0.01 0.03 0.02 100 1015.1
20260905123556 72 0.0 0.0 0.01 0.04 0.02 100 1015.1
20260905122515 72 0.0 0.0 0.01 0.04 0.02 100 1015.1
20260905121637 71 0.0 0.0 0.01 0.04 0.02 100 1015.2
20260905120515 70 0.0 1.7 0.00 0.03 0.01 99 1015.0
20260905115515 70 0.0 0.0 0.00 0.03 0.01 99 1015.1
20260905114515 70 0.0 0.0 0.00 0.03 0.01 99 1014.8
20260905113515 69 0.0 0.0 0.00 0.03 0.01 99 1014.6
20260905112536 69 0.0 0.0 0.00 0.03 0.01 99 1014.6
20260905111536 69 0.0 0.0 0.00 0.03 0.01 99 1014.4
20260905110515 69 0.0 0.0 0.00 0.03 0.01 99 1014.4
20260905104616 69 0.0 0.0 0.00 0.03 0.01 99 1014.4
20260905103515 69 0.0 0.0 0.00 0.03 0.01 99 1014.4
20260905102636 70 0.0 0.0 0.00 0.03 0.01 99 1014.4
20260905101515 70 0.0 0.0 0.00 0.03 0.01 99 1014.3
20260905100515 70 0.0 0.0 0.00 0.03 0.01 99 1014.3
20260905095535 70 0.0 0.0 0.00 0.03 0.01 98 1014.3
20260905094555 70 0.0 0.0 0.00 0.03 0.01 99 1014.3
20260905093515 70 0.0 0.0 0.00 0.03 0.01 99 1014.2
20260905092555 71 0.0 0.0 0.01 0.03 0.01 98 1014.3
20260905091535 71 0.0 0.0 0.01 0.03 0.01 98 1014.4
20260905090515 71 0.0 0.0 0.01 0.03 0.01 98 1014.4
20260905085555 71 0.0 0.0 0.01 0.03 0.01 98 1014.5
20260905084535 71 0.0 0.0 0.01 0.03 0.01 98 1014.5
20260905083515 71 0.0 0.0 0.01 0.03 0.01 98 1014.7
20260905082636 72 0.0 0.0 0.00 0.02 0.00 98 1014.8
20260905081515 72 0.0 0.0 0.00 0.02 0.00 98 1014.9
20260905080517 72 0.0 0.9 0.00 0.02 0.00 98 1014.9
20260905075517 72 0.0 0.9 0.00 0.02 0.00 98 1015.0
20260905074537 72 0.0 0.0 0.00 0.02 0.00 97 1015.1
20260905073617 73 0.0 0.9 0.00 0.02 0.00 97 1014.9
20260905072557 73 0.0 0.0 0.00 0.02 0.00 96 1014.6
20260905071537 74 0.0 0.0 0.00 0.02 0.00 95 1014.7
20260905070517 74 45 0.9 3.5 0.00 0.02 0.00 95 1015.3
20260905065517 74 0.0 1.7 0.00 0.02 0.00 95 1016.1
20260905064517 74 0.0 0.0 0.00 0.02 0.00 95 1016.0
20260905063517 73 0.0 0.0 0.00 0.02 0.00 95 1016.0
20260905062557 73 0.0 0.9 0.00 0.03 0.00 96 1016.5
20260905061537 73 0.0 0.0 0.00 0.03 0.00 95 1016.0
20260905060517 73 0.0 0.0 0.00 0.03 0.00 95 1016.5
20260905055637 73 0.0 0.0 0.00 0.03 0.00 95 1016.7
20260905054537 73 0.0 0.0 0.00 0.03 0.00 95 1016.7
20260905053537 73 0.0 0.0 0.00 0.03 0.00 94 1016.9
20260905052557 73 0.0 0.0 0.00 0.03 0.00 94 1017.0
20260905051657 73 0.0 0.0 0.00 0.03 0.00 94 1016.9
20260905050537 73 0.0 0.0 0.00 0.03 0.00 94 1017.0
20260905045517 73 0.0 0.0 0.00 0.03 0.00 94 1017.1
20260905044517 73 0.0 0.9 0.00 0.03 0.00 94 1017.3
20260905043557 73 0.0 0.0 0.00 0.03 0.00 94 1017.3
20260905042557 73 0.0 0.0 0.00 0.03 0.00 93 1017.3
20260905041537 73 0.0 0.9 0.00 0.03 0.00 94 1017.2
20260905040517 72 0.0 0.9 0.00 0.03 0.00 94 1017.3
20260905035515 72 0.0 0.0 0.00 0.03 0.03 94 1016.9
20260905034515 72 0.0 0.0 0.00 0.03 0.03 94 1017.0
20260905033515 73 0.0 0.0 0.00 0.03 0.03 94 1016.7
20260905032517 73 0.0 0.0 0.00 0.03 0.03 93 1016.5
20260905031517 73 0.0 0.0 0.00 0.03 0.03 93 1016.4
20260905030557 73 0.0 0.0 0.00 0.03 0.03 93 1016.4
20260905025517 73 0.0 0.0 0.00 0.03 0.03 92 1016.1
20260905024517 73 0.0 0.0 0.00 0.03 0.03 92 1016.3
20260905023535 73 0.0 0.0 0.00 0.03 0.03 92 1016.3
20260905022617 73 0.0 0.0 0.00 0.03 0.03 91 1016.3
20260905021517 74 0.0 0.0 0.00 0.03 0.03 91 1016.3
20260905020557 74 0.0 0.0 0.00 0.03 0.03 90 1016.2
20260905015537 74 0.0 0.0 0.00 0.03 0.03 90 1016.1
20260905014637 74 0.0 0.0 0.00 0.03 0.03 89 1015.8
20260905013517 75 0.0 0.0 0.00 0.03 0.03 88 1015.6
20260905012517 75 0.0 0.0 0.00 0.03 0.03 88 1015.5
20260905011517 76 0.0 0.0 0.00 0.03 0.03 87 1015.5
20260905010557 76 0.0 0.0 0.00 0.03 0.03 86 1015.5
20260905004537 77 0.0 0.0 0.00 0.03 0.03 84 1015.6
20260905003517 77 0.0 0.0 0.00 0.03 0.03 84 1015.6
20260905002537 78 0.0 0.0 0.00 0.03 0.03 83 1015.8
20260905001537 78 0.0 0.0 0.00 0.03 0.03 82 1016.1
20260905000557 79 0.0 0.0 0.00 0.03 0.03 82 1016.4
20260904235637 79 0.0 0.9 0.00 0.03 0.03 80 1016.8
20260904234537 79 0.0 1.7 0.00 0.03 0.03 79 1016.7
20260904233517 80 45 2.6 7.0 0.00 0.03 0.03 77 1016.9
20260904232517 81 23 0.9 3.5 0.00 0.03 0.03 71 1016.7
20260904231517 81 45 0.9 5.2 0.00 0.03 0.03 69 1016.2
20260904230517 82 293 0.9 5.2 0.00 0.03 0.03 68 1016.3
20260904225517 83 45 0.9 6.1 0.00 0.03 0.03 67 1016.5
20260904224617 85 23 2.6 7.0 0.00 0.03 0.03 67 1016.6
20260904223516 87 45 1.7 10.4 0.00 0.03 0.03 65 1016.7
20260904222517 91 45 0.9 4.3 0.00 0.03 0.03 63 1016.5
20260904221537 94 23 0.9 2.6 0.00 0.03 0.03 62 1016.2
20260904220516 93 0.0 0.9 0.00 0.03 0.03 64 1015.9